Location: Miles
(41.4492°N, 81.6087°W)
Time: 04:35:27
(UTC+00:00)

Tiros 1 despin weight - Pass Details

Date: 13 September 2024
Orbit: 573 x 615 km, 48.2° (Epoch: 04 October)

Event Time Altitude Azimuth Distance (km) Brightness Sun altitude
Rises 08:11:09 0° 208° (SSW) 2,856 - -30.9°
Reaches altitude 10° 08:13:41 10° 196° (SSW) 1,962 - -30.5°
Maximum altitude 08:17:31 28° 138° (SE) 1,174 - -29.9°
Exits shadow 08:18:48 24° 110° (ESE) 1,290 ? -29.7°
Drops below altitude 10° 08:21:27 10° 79° (E) 2,005 ? -29.3°
Sets 08:23:57 0° 68° (ENE) 2,893 ? -29.0°
